[Date Prev][Date Next][Thread Prev][Thread Next] - [Date Index][Thread Index][Author Index]
UPDATED ISS Keps 10-11 - updates this AM keps by abt 3 min's
- Subject: [sarex] UPDATED ISS Keps 10-11 - updates this AM keps by abt 3 min's
- From: "Dave Larsen PhD" <doc@xxxxxxxxxxx>
- Date: Thu, 11 Oct 2001 13:01:15 -0700
ISS
1 25544U 98067A 01284.76223917 .01157252 00000-0 14672-1 0 5868
2 25544 51.6405 222.0955 0007430 200.5624 255.7136 15.56456751165276
----
Via the sarex mailing list at AMSAT.ORG courtesy of AMSAT-NA.
To unsubscribe, send "unsubscribe sarex" to Majordomo@amsat.org
AMSAT Home